Home   Weather   Prince Albert   Past weeks

Flag for Canada Past Weather in Prince Albert, Saskatchewan, Canada — Yesterday and Last 2 Weeks

39 °F

Low clouds.

Feels Like: 33 °F
Forecast: N/A
Wind: 9 mph from West

Location: Prince Albert

Current Time: Oct 23, 2016 at 4:17:28 PM

Latest Report: Oct 23, 2016 at 3:00 PM

Visibility: 10 mi

Pressure: 30.27 "Hg

Humidity: 93%

Dew Point: 37 °F

Location of Prince AlbertLocation

Past Weather in Prince Albert — Graph


Prince Albert Temperature Yesterday

Maximum temperature yesterday: 34 °F (at 3:00 PM)
Minimum temperature yesterday: 23 °F (at 6:00 AM)
Average temperature yesterday: 29 °F

High & Low Weather Summary for the Past Weeks

High46 °F (Oct 21, 3:00 PM)100% (Oct 9, 1:48 PM)30.40 "Hg (Oct 9, 1:48 PM)
Low16 °F (Oct 13, 8:00 AM)60% (Oct 11, 2:00 PM)29.27 "Hg (Oct 16, 11:00 PM)
Average31 °F88%29.94 "Hg
* Reported Oct 8 3:00 PM — Oct 23 3:00 PM, Prince Albert, Weather by CustomWeather, © 2016

Note: Actual official high and low records may vary slightly from our data, if they occured in-between our weather recording intervals... More about our weather records


Prince Albert Weather History for the Previous 24 Hours

Scroll right to see more
Time TempWeatherWind HumidityBarometerVisibility
3:00 PM
Sun, Oct 23
39 °FLow clouds.9 mph93%30.27 "Hg10 mi
2:00 PM37 °FLow clouds.5 mph100%30.27 "Hg10 mi
1:00 PM37 °FLow clouds.6 mph100%30.27 "Hg8 mi
12:00 PM34 °FFog.2 mph93%30.27 "Hg5 mi
11:00 AM30 °FIce fog.3 mph100%30.27 "Hg3 mi
10:00 AM30 °FIce fog.6 mph93%30.26 "Hg1 mi
9:47 AM30 °FIce fog.6 mph93%30.26 "Hg1 mi
9:00 AM28 °FIce fog.6 mph100%30.24 "Hg1 mi
8:00 AM28 °FIce fog.5 mph100%30.22 "Hg0 mi
7:00 AM28 °FIce fog.3 mph100%30.21 "Hg0 mi
6:00 AM28 °FIce fog.5 mph100%30.20 "Hg0 mi
5:00 AM28 °FIce fog.3 mph100%30.19 "Hg0 mi
4:00 AM30 °FIce fog.2 mph93%30.17 "Hg0 mi
3:00 AM30 °FIce fog.No wind100%30.15 "Hg0 mi
2:00 AM30 °FIce fog.2 mph100%30.14 "Hg0 mi
1:00 AM32 °FIce fog.2 mph93%30.13 "Hg0 mi
12:00 AM32 °FFog.No wind100%30.11 "Hg0 mi
11:00 PM
Sat, Oct 22
32 °FFog.2 mph100%30.10 "Hg0 mi
10:00 PM32 °FFog.No wind100%30.09 "Hg0 mi
9:00 PM32 °FIce fog.3 mph100%30.07 "Hg1 mi
8:49 PM32 °FIce fog.2 mph100%30.06 "Hg1 mi
8:00 PM32 °FIce fog.No wind100%30.05 "Hg3 mi
7:00 PM32 °FIce fog.3 mph100%30.03 "Hg2 mi
6:00 PM34 °FFog.3 mph93%30.01 "Hg3 mi
5:00 PM34 °FFog.5 mph100%30.00 "Hg0 mi
4:00 PM34 °FFog.2 mph100%30.00 "Hg1 mi
Weather by CustomWeather, © 2016

See weather overviewHow to use our weather pages